Regional Weather Roundup
Issued by NWS Upton, NY

Current Version | Previous Version | Graphics & Text | Print | Product List | Glossary Off
Versions: 1 2 3 4 5 6 7 8 9 10 11 12 13 14 15 16 17 18 19 20 21 22 23 24 25 26 27

000
ASUS41 KOKX 221107
RWROKX

REGIONAL WEATHER ROUNDUP
NATIONAL WEATHER SERVICE NEW YORK NY
700 AM EDT WED MAR 22 2017

NOTE: "FAIR" INDICATES FEW OR NO CLOUDS BELOW 12,000 FEET WITH NO
SIGNIFICANT WEATHER AND/OR OBSTRUCTIONS TO VISIBILITY.

NYZ071-072-176-178-NJZ106-104-221200-
NEW YORK CITY METRO AREA

CITY           SKY/WX    TMP DP  RH WIND       PRES   REMARKS
Central Park   CLEAR     39  18  42 W15G24    29.97R WCI  31
Wall St Helipt SUNNY     39  19  45 VRB3      29.98R
LaGuardia APRT PTCLDY    41  19  41 NW18      29.96R
Kennedy INTL   PTCLDY    40  17  39 NW25G33   29.97R WCI  29
Breezy Point     N/A     39 N/A N/A NW20G29     N/A  WCI  30
Newark/Liberty PTCLDY    39  15  37 NW17G24   29.98R WCI  30
Teterboro      CLEAR     39  20  46 NW16G22   29.97R WCI  30
$$

NYZ177-179-078>081-221200-
LONG ISLAND NEW YORK

CITY           SKY/WX    TMP DP  RH WIND       PRES   REMARKS
Jones Beach      N/A     39 N/A N/A NW25G35     N/A  WCI  28
Matinecock PT    N/A     41 N/A N/A NW28G35     N/A
Farmingdale    CLEAR     38  18  44 NW15G26   29.95R WCI  29
MacArthur/ISP  PTCLDY    38  19  46 NW23G35   29.92R WCI  27
Shirley        CLEAR     38  21  50 NW15G26   29.92R WCI  29
Westhampton    CLEAR     39  20  46 W17G26    29.90R WCI  30
East Hampton     N/A     38  24  57 NW10G16   29.87R WCI  31
Montauk          N/A     40  26  57 NW14G21   29.87R WCI  32
$$

NYZ052-065-067-221200-
HUDSON VALLEY

CITY           SKY/WX    TMP DP  RH WIND       PRES   REMARKS
White Plains   PTCLDY    36  18  48 NW20G29   29.93R WCI  25
Newburgh       PTCLDY    34  21  60 NW20G31   29.94R WCI  22
Montgomery     MOCLDY    34  20  56 NW24G35   29.96R WCI  21
Poughkeepsie   MOCLDY    35  20  54 W20G30    29.93R WCI  24
Albany         CLOUDY    28  15  58 W26G35    30.00R WCI  13
$$

NJZ001-105-106-008-010-013-015-019>022-104-221200-
NEW JERSEY

CITY           SKY/WX    TMP DP  RH WIND       PRES   REMARKS
Newark/Liberty PTCLDY    39  15  37 NW17G24   29.98R WCI  30
Teterboro      CLEAR     39  20  46 NW16G22   29.97R WCI  30
Caldwell       PTCLDY    37  17  44 NW8       29.99R WCI  31
Somerville     CLEAR     38  18  44 NW13G24   29.98R WCI  30
Linden           N/A     38  15  38 NW14G23   29.99R WCI  30
Sussex         CLEAR     33  19  56 VRB6G21   29.99R WCI  28
Andover          N/A     32  20  61 N9G20     29.99R WCI  24
Trenton        PTCLDY    39  20  46 NW7       30.00R WCI  34
Millville      CLEAR     45  27  49 NW14G20   29.98R
Atlantic City  CLEAR     43  26  51 NW15G25   29.96R
Wrightstown    CLEAR     40  25  54 N16G24    29.96R WCI  31
Toms River     CLEAR     40  24  53 NW18G24   29.98R WCI  31
Belmar         CLEAR    N/A N/A N/A NW24      29.97R
$$

PAZ047>061-062-071-221200-
EASTERN PENNSYLVANIA

CITY           SKY/WX    TMP DP  RH WIND       PRES   REMARKS
Philadelphia   PTCLDY    43  23  45 N18G30    30.02R
Allentown      CLEAR     37  18  46 NW14G22   30.03R WCI  28
Scranton       MOCLDY    28  13  53 N26G36    30.07R WCI  13
$$

CTZ002-004>006-009-010-012-RIZ004-006-007-MAZ004-011-015-221200-
SOUTHERN NEW ENGLAND
 IN CT

CITY           SKY/WX    TMP DP  RH WIND       PRES   REMARKS
Bradley INTL   PTCLDY    36  22  56 W17G23    29.85R WCI  26
Hartford       CLEAR     38  20  48 W7        29.87R WCI  33
Danbury        CLEAR     35  19  52 W12G23    29.91R WCI  27
Wtrbury/Oxford PTCLDY    34  16  47 NW9       29.88R WCI  26
Bridgeport     CLEAR     39  20  46 W8        29.92R WCI  33
Meriden        CLEAR     38  19  46 W6        29.88R WCI  33
New Haven      CLEAR     39  21  48 NW12G20   29.90R WCI  32
Chester          N/A     36  19  51 W9G17     29.86R WCI  29
Groton         PTCLDY    38  21  50 NW10      29.87R WCI  31
Wilimantic     PTCLDY    37  21  52 W7        29.85R WCI  32

 IN RI

CITY           SKY/WX    TMP DP  RH WIND       PRES   REMARKS
Providence     PTCLDY    37  19  48 W10       29.81R WCI  30
Block Island   CLEAR     39  25  57 NW15G24   29.84R WCI  31
Westerly       CLEAR     39  22  50 VRB6      29.86R WCI  35
 IN MA

CITY           SKY/WX    TMP DP  RH WIND       PRES   REMARKS
Boston         PTCLDY    38  20  48 W15       29.77R WCI  29
Worcester      CLEAR     32  19  58 W21G28    29.74R WCI  20
Westfield      CLEAR     35  24  64 NW17G28   29.81F WCI  25
Provincetown   PTCLDY    38  26  62 W16       29.76R WCI  29
Nantucket      MOCLDY    39  31  72 W9        29.79R WCI  33
$$

ANZ330-335-338-340-345-350-353-355-221200-
COASTAL MARINE OBSERVATIONS


STATION/POSITION TIME  SKY/WX   TEMP    WIND        PRES    VSBY  WAVE
                                AIR SEA DIR/SP/G                  HT/PER
                 (UTC)          (F)     (DEG/KT/KT) (MB)    (MI)  (FT/S)
NY HARB ENTRANCE 0950            44 42  320/ 21/ 25 1012.6          2/10
20 S FIRE ISLAND 0950            43 41  330/ 19/ 23 1011.1          2/ 9
GREAT SOUTH BAY  NOT AVBL
23 SSW MONTAUK P 0950            44 42              1010.4          2/11
15 E BARNEGAT LI 1030               43                N/A           3/10
HUDSON CANYON    0950            47 45  360/  6/  8 1010.9          3/10
KINGS POINT      1036            39 38              1014.2
EXECUTION ROCKS  NOT AVBL
CENTRAL LI SOUND 1030            41     310/ 16/ 19   N/A           1/ 3
EASTERN LI SOUND NOT AVBL
ROBBINS REEF     1048            39     310/ 23/ 30 1014.6
$$


>>>>>>>>>>>>>>>>>>>>>>>>>>>> KEY <<<<<<<<<<<<<<<<<<<<<<<<<<<
>                                                          <
>     SKY/WX - Sky Condition/Present Weather               <
>     TMP    - Temperature in Fahrenheit                   <
>     DP     - Dew Point in Fahrenheit                     <
>     RH     - Relative Humidity in Percent                <
>     WIND   - Direction (from) and Speed in MPH           <
>     PRES   - Mean Sea Level Pressure (inches of Hg)      <
>     WCI    - Wind Chill Index                            <
>     VSB    - VISIBILITY IN MILES                         <
>     HX     - HEAT INDEX                                  <
>     TC     - TEMPERATURE IN CELSIUS                      <
>     VRB    - VARIABLE WIND DIRECTION                     <
>                                                          <
>>>>>>>>>>>>>>>>>>>>>>>>>>>> KEY <<<<<<<<<<<<<<<<<<<<<<<<<<<




USA.gov is the U.S. government's official web portal to all federal, state and local government web resources and services.